This is the latest recevied weather packets stored in our database for station/object KD9IXX-13. If no packets are shown the sender has not sent any weather packets the latest 10 day(s).
| Time | Temp. | Humidity | Pressure | Rain* | Wind** | Luminosity | Snow |
|---|---|---|---|---|---|---|---|
| 1787910901 | 18.89° C | 87% | 1020.7 hPa | 0 mm | - | 0 W/m² | - |
| 1787909402 | 18.89° C | 93% | 1020.6 hPa | 0 mm | - | 0 W/m² | - |
| 1787909102 | 18.89° C | 93% | 1020.7 hPa | 0 mm | - | 0 W/m² | - |
| 1787908801 | 18.89° C | 93% | 1020.7 hPa | 0 mm | - | 0 W/m² | - |
| 1787907001 | 19.44° C | 91% | 1020.5 hPa | 0 mm | - | 0 W/m² | - |
| 1787906402 | 19.44° C | 90% | 1020.7 hPa | 0 mm | - | 0 W/m² | - |
| 1787905502 | 19.44° C | 92% | 1020.4 hPa | 0 mm | - | 0 W/m² | - |
| 1787904902 | 18.89° C | 92% | 1020.3 hPa | 0 mm | - | 0 W/m² | - |
| 1787904301 | 18.89° C | 92% | 1020.1 hPa | 0 mm | - | 0 W/m² | - |
| 1787903401 | 18.89° C | 92% | 1020.2 hPa | 0 mm | - | 0 W/m² | - |
| 1787903102 | 18.89° C | 92% | 1020.4 hPa | 0 mm | - | 0 W/m² | - |
| 1787901902 | 18.33° C | 94% | 1020.1 hPa | 0 mm | - | 0 W/m² | - |
| 1787901002 | 18.33° C | 93% | 1020.2 hPa | 0 mm | - | 0 W/m² | - |
| 1787900102 | 18.33° C | 93% | 1020.3 hPa | 0 mm | - | 0 W/m² | - |
| 1787899202 | 18.33° C | 93% | 1020.2 hPa | 0 mm | - | 0 W/m² | - |
| 1787898601 | 18.33° C | 94% | 1019.9 hPa | 0 mm | - | 0 W/m² | - |
| 1787898002 | 17.78° C | 94% | 1020.1 hPa | 0 mm | - | 0 W/m² | - |
| 1787897702 | 17.78° C | 94% | 1020.3 hPa | 0 mm | - | 0 W/m² | - |
| 1787897402 | 18.33° C | 94% | 1020.2 hPa | 0 mm | - | 0 W/m² | - |
| 1787897102 | 18.33° C | 93% | 1020.2 hPa | 0 mm | - | 0 W/m² | - |
| 1787896802 | 18.33° C | 93% | 1020.1 hPa | 0 mm | - | 0 W/m² | - |
| 1787896502 | 18.33° C | 92% | 1020.1 hPa | 0 mm | - | 0 W/m² | - |
| 1787895001 | 18.33° C | 93% | 1019.7 hPa | 0 mm | - | 0 W/m² | - |
| 1787893202 | 17.78° C | 93% | 1019.5 hPa | 0 mm | - | 0 W/m² | - |
| 1787892902 | 17.78° C | 93% | 1019.7 hPa | 0 mm | - | 0 W/m² | - |
* Rain latest hour (hover to see other rain measurements)
** Current wind speed in m/s (hover to see current wind gust speed)